[[{"header":{"parameterUnit":"m.s-1","parameterCategory":1,"la1":30.2991,"la2":30.254,"lo1":-89.0895,"lo2":-89.0444,"dy":0.0017,"dx":0.0017,"nx":28,"ny":28,"refTime":"2025-04-17T09:00:00:Z","depth":0,"parameterNumber":2,"parameterNumberName":"U-component_of_WINDS"},"data":[0,0,0,0,0,0,0,0,0,0,0,0,0,0,0,0,0,0,0,0,0,0,0,0,0,0,0,0,0,0,0,0,0,0,0,0,0,0,0,0,0,0,0,0,0,0,0,0,0,0,0,0,0,0,0,0,0,0,-0.4783,-0.4783,0,-0.4818,-0.4818,-0.4819,-0.4833,-0.4833,-0.4833,-0.4833,-0.4871,-0.4872,-0.4873,0,0,0,0,0,0,0,0,0,0,0,0,0,-0.4731,-0.4732,-0.4783,-0.4783,-0.4784,-0.4818,-0.4818,-0.4819,-0.4833,-0.4833,-0.4833,-0.4833,-0.487,-0.4872,-0.4873,0,0,0,0,0,0,0,0,0,0,0,0,0,-0.4759,-0.4733,-0.4783,-0.4795,-0.4796,-0.4818,-0.4818,-0.4819,-0.4833,-0.4833,-0.4833,-0.4833,-0.487,-0.4872,-0.4873,-0.4886,0,0,-0.4878,-0.4879,0,0,0,0,0,0,0,0,-0.4757,-0.4761,-0.4793,-0.4794,-0.4796,-0.4821,-0.4814,-0.4842,-0.4833,-0.4819,-0.4833,-0.4832,-0.4854,-0.4857,-0.4864,-0.4888,-0.4889,-0.4878,-0.4879,-0.488,-0.4881,0,0,0,0,0,0,0,-0.4755,-0.4759,-0.4797,-0.4793,-0.4795,-0.48,-0.4803,-0.4819,-0.4837,-0.482,-0.4821,-0.4825,-0.4855,-0.4863,-0.4865,-0.489,-0.4878,-0.488,-0.4881,-0.4881,-0.4928,-0.4928,0,0,0,0,0,0,-0.4751,-0.4758,-0.4796,-0.4798,-0.4776,-0.4801,-0.4805,-0.4813,-0.4837,-0.484,-0.4825,-0.4826,-0.486,-0.4863,-0.4867,-0.4884,-0.488,-0.4882,-0.4883,-0.4927,-0.4928,-0.4928,0,0,0,0,0,0,-0.475,-0.4754,-0.4794,-0.4778,-0.4784,-0.4802,-0.4811,-0.4814,-0.4821,-0.4841,-0.4844,-0.4829,-0.486,-0.4864,-0.4881,-0.4886,-0.4882,-0.4884,-0.4927,-0.4927,-0.4928,-0.4919,0,0,0,0,0,0,-0.4748,-0.4754,-0.4758,-0.4778,-0.4784,-0.4807,-0.4811,-0.4815,-0.4824,-0.4825,-0.4846,-0.4849,-0.486,-0.4879,-0.4883,-0.4888,-0.4885,-0.4927,-0.4927,-0.4928,-0.4919,-0.4919,-0.4919,0,0,0,0,0,-0.4747,-0.4754,-0.4758,-0.4763,-0.479,-0.4808,-0.4811,-0.4823,-0.4824,-0.4829,-0.4842,-0.4848,-0.4884,-0.488,-0.4885,-0.4891,-0.4927,-0.4927,-0.4928,-0.4919,-0.4919,-0.4919,0,0,0,0,0,0,-0.4735,-0.4757,-0.4762,-0.4776,-0.479,-0.481,-0.4816,-0.4823,-0.4837,-0.4838,-0.4853,-0.4858,-0.4873,-0.4884,-0.4879,-0.4905,-0.4906,-0.4908,-0.4898,-0.4898,-0.4898,-0.4895,-0.4886,0,0,0,0,0,-0.4734,-0.4746,-0.4765,-0.4776,-0.4782,-0.4798,-0.4806,-0.4815,-0.483,-0.4836,-0.485,-0.4865,-0.488,-0.489,-0.4904,-0.492,-0.4926,-0.4927,-0.4927,-0.4927,-0.4928,-0.4939,-0.4939,-0.493,-0.493,-0.493,0,0,-0.4732,-0.4746,-0.4752,-0.4774,-0.4785,-0.4798,-0.4803,-0.4816,-0.4826,-0.4838,-0.4855,-0.4866,-0.4884,-0.4901,-0.4909,-0.491,-0.4932,-0.4927,-0.4927,-0.4929,-0.4939,-0.494,-0.4941,-0.493,-0.493,-0.493,0,0,-0.4736,-0.4747,-0.4757,-0.4769,-0.4786,-0.4797,-0.48,-0.4819,-0.4827,-0.4844,-0.4853,-0.4866,-0.4891,-0.4904,-0.4914,-0.4924,-0.4931,-0.4928,-0.4928,-0.4938,-0.4939,-0.494,-0.4944,-0.4946,-0.4929,-0.4929,-0.4929,0,-0.4732,-0.475,-0.4762,-0.4775,-0.4785,-0.4796,-0.4808,-0.4819,-0.484,-0.4847,-0.4848,-0.488,-0.4893,-0.4914,-0.4916,-0.4924,-0.4928,-0.4926,-0.4938,-0.4939,-0.494,-0.4944,-0.4946,-0.4929,-0.4929,-0.4929,-0.4929,0,-0.4745,-0.4758,-0.4765,-0.4785,-0.4795,-0.4807,-0.4822,-0.4832,-0.484,-0.4851,-0.4869,-0.4885,-0.4903,-0.4909,-0.4917,-0.4931,-0.4931,-0.4935,-0.4936,-0.494,-0.4945,-0.4946,-0.4928,-0.4928,-0.4929,-0.4929,0,0,-0.4741,-0.4768,-0.4771,-0.4781,-0.4801,-0.4812,-0.4825,-0.4843,-0.4851,-0.4866,-0.4879,-0.49,-0.4904,-0.4915,-0.4925,-0.4933,-0.4941,-0.4936,-0.4937,-0.4937,-0.496,-0.4957,-0.4959,-0.4946,-0.4946,-0.4947,-0.4959,0,-0.4748,-0.4771,-0.4783,-0.4802,-0.4815,-0.4826,-0.4838,-0.4853,-0.4864,-0.4877,-0.489,-0.4905,-0.4908,-0.4915,-0.4924,-0.4938,-0.4946,-0.4938,-0.4959,-0.4959,-0.4954,-0.4961,-0.4958,-0.4969,-0.496,-0.4961,-0.4961,0,-0.4758,-0.4773,-0.4793,-0.4813,-0.4819,-0.4829,-0.4847,-0.4859,-0.4877,-0.4884,-0.4897,-0.4906,-0.4922,-0.4923,-0.4946,-0.4939,-0.4949,-0.4957,-0.4958,-0.4961,-0.496,-0.4965,-0.4972,-0.4974,-0.4963,-0.4963,-0.4963,0,-0.4755,-0.4779,-0.4794,-0.4802,-0.4826,-0.4833,-0.4844,-0.4861,-0.4871,-0.4887,-0.4894,-0.4912,-0.4922,-0.4937,-0.4951,-0.495,-0.4973,-0.4974,-0.4981,-0.4981,-0.4986,-0.4985,-0.4995,-0.4991,-0.4991,-0.4991,-0.4991,0,-0.4761,-0.4773,-0.4793,-0.4803,-0.4817,-0.4831,-0.4845,-0.4857,-0.4872,-0.4885,-0.4896,-0.4908,-0.4927,-0.4941,-0.4953,-0.4971,-0.4975,-0.4983,-0.4986,-0.4982,-0.4981,-0.4989,-0.4989,-0.4991,-0.4991,-0.4991,-0.4991,0,-0.4759,-0.4773,-0.479,-0.4812,-0.4817,-0.4827,-0.4846,-0.4856,-0.4868,-0.4884,-0.4889,-0.4908,-0.4926,-0.4942,-0.4966,-0.4974,-0.4993,-0.4996,-0.4987,-0.4988,-0.4994,-0.4994,-0.501,-0.5013,-0.5006,-0.5006,-0.5006,0,-0.4762,-0.4771,-0.4794,-0.4803,-0.4813,-0.4827,-0.4838,-0.4853,-0.4864,-0.4885,-0.4893,-0.4912,-0.4928,-0.4957,-0.4973,-0.4992,-0.4997,-0.5001,-0.5,-0.4996,-0.4998,-0.4997,-0.4999,-0.5001,-0.5001,-0.5001,-0.5001,0,-0.4766,-0.4773,-0.4787,-0.4805,-0.4817,-0.4832,-0.4847,-0.4854,-0.4872,-0.4884,-0.4902,-0.4914,-0.4939,-0.4958,-0.4979,-0.4991,-0.5,-0.5002,-0.5004,-0.5001,-0.4995,-0.4999,-0.4987,-0.5001,-0.5001,-0.5001,-0.5001,-0.5001,-0.4768,-0.4777,-0.4794,-0.481,-0.4823,-0.4837,-0.4848,-0.4862,-0.4877,-0.4898,-0.4906,-0.4925,-0.4944,-0.4973,-0.4985,-0.5001,-0.5003,-0.5006,-0.5007,-0.5008,-0.5008,-0.4992,-0.5005,-0.5005,-0.5005,-0.5005,-0.5005,0,-0.4773,-0.4785,-0.48,-0.482,-0.4833,-0.4839,-0.4857,-0.4868,-0.4884,-0.49,-0.4916,-0.4938,-0.4957,-0.4975,-0.4996,-0.5005,-0.501,-0.501,-0.501,-0.5013,-0.5005,-0.5001,-0.5006,-0.5006,-0.5006,-0.5006,-0.5006,-0.5006,-0.4778,-0.4794,-0.4803,-0.4826,-0.4839,-0.4857,-0.4866,-0.488,-0.4893,-0.4917,-0.4932,-0.4944,-0.4962,-0.4984,-0.5002,-0.5007,-0.5015,-0.5014,-0.502,-0.5013,-0.5013,-0.5013,-0.5009,-0.5015,-0.5015,-0.5027,-0.5027,-0.5027]},{"header":{"parameterUnit":"m.s-1","parameterCategory":1,"la1":30.2991,"la2":30.254,"lo1":-89.0895,"lo2":-89.0444,"dy":0.0017,"dx":0.0017,"nx":28,"ny":28,"refTime":"2025-04-17T09:00:00:Z","depth":0,"parameterNumber":3,"parameterNumberName":"V-component_of_WINDS"},"data":[0,0,0,0,0,0,0,0,0,0,0,0,0,0,0,0,0,0,0,0,0,0,0,0,0,0,0,0,0,0,0,0,0,0,0,0,0,0,0,0,0,0,0,0,0,0,0,0,0,0,0,0,0,0,0,0,0,0,5.9155,5.9156,0,5.924,5.9241,5.9242,5.9176,5.9174,5.9171,5.9168,5.925,5.9255,5.926,0,0,0,0,0,0,0,0,0,0,0,0,0,5.8926,5.8931,5.9155,5.9156,5.9157,5.924,5.9241,5.9243,5.9177,5.9174,5.917,5.9167,5.9249,5.9254,5.926,0,0,0,0,0,0,0,0,0,0,0,0,0,5.902,5.8932,5.9154,5.9134,5.9133,5.924,5.9241,5.9243,5.9178,5.9173,5.9169,5.9165,5.9247,5.9254,5.9261,5.939,0,0,5.9283,5.9286,0,0,0,0,0,0,0,0,5.9015,5.9028,5.9136,5.9136,5.9135,5.9194,5.9191,5.9292,5.9179,5.9161,5.9168,5.9163,5.9234,5.9242,5.9267,5.9394,5.9398,5.9283,5.9288,5.9291,5.9293,0,0,0,0,0,0,0,5.9008,5.9024,5.9188,5.9138,5.9137,5.9118,5.9127,5.921,5.922,5.9162,5.9157,5.9169,5.9233,5.9261,5.9269,5.9399,5.9283,5.929,5.9294,5.9297,5.9632,5.9636,0,0,0,0,0,0,5.9005,5.9019,5.9186,5.9191,5.9063,5.9126,5.9136,5.9179,5.9219,5.9221,5.9172,5.9165,5.925,5.9261,5.9272,5.9423,5.9291,5.9298,5.9302,5.9627,5.9633,5.9638,0,0,0,0,0,0,5.9,5.902,5.9182,5.9104,5.9123,5.9134,5.9184,5.9183,5.921,5.9227,5.9228,5.9199,5.9247,5.9261,5.9361,5.9425,5.9301,5.9308,5.9622,5.9629,5.9635,5.9729,0,0,0,0,0,0,5.8994,5.9019,5.907,5.9106,5.9128,5.9273,5.9188,5.9188,5.9224,5.9215,5.9252,5.9254,5.9245,5.935,5.9368,5.9433,5.9313,5.9616,5.9625,5.9633,5.972,5.9738,5.9754,0,0,0,0,0,5.8986,5.9093,5.9073,5.9094,5.9192,5.9277,5.9289,5.9278,5.9229,5.9279,5.9289,5.9253,5.9416,5.9361,5.938,5.9448,5.9612,5.9622,5.9632,5.9713,5.9735,5.9753,0,0,0,0,0,0,5.9063,5.9097,5.9076,5.9198,5.9235,5.9265,5.9328,5.9302,5.9352,5.9342,5.9325,5.9334,5.9438,5.9453,5.9392,5.9574,5.9506,5.952,5.956,5.9581,5.9598,5.9591,5.9319,0,0,0,0,0,5.9095,5.9163,5.9188,5.9292,5.9312,5.9317,5.9354,5.9342,5.9379,5.9394,5.9411,5.9447,5.9505,5.9544,5.9599,5.9722,5.9728,5.9778,5.9795,5.9809,5.9821,5.9884,5.9906,5.9671,5.9671,5.9671,0,0,5.916,5.9187,5.923,5.9309,5.9336,5.9404,5.9331,5.9406,5.9455,5.9404,5.9499,5.9513,5.9551,5.9662,5.9712,5.9678,5.9887,5.9822,5.9833,5.9838,5.9897,5.9919,5.9939,5.9678,5.9677,5.9676,0,0,5.9313,5.9342,5.9431,5.946,5.9502,5.9505,5.9526,5.956,5.9568,5.9663,5.9626,5.9682,5.9785,5.9813,5.984,6.0002,5.9969,6.002,6.0107,6.0169,6.0187,6.0203,6.0258,6.0278,6.0033,6.0033,6.0033,0,5.9388,5.9491,5.9479,5.9557,5.9591,5.955,5.9638,5.9666,5.9724,5.9747,5.9709,5.9835,5.9858,5.9973,6.0012,6.0037,6.0058,6.0015,6.0186,6.0202,6.0217,6.0269,6.029,6.0039,6.0038,6.0037,6.0037,0,5.9579,5.9651,5.9718,5.9776,5.9817,5.99,5.9898,5.9942,5.9926,5.9931,6.0027,6.0053,6.0111,6.0138,6.0123,6.0251,6.0228,6.0189,6.0119,6.0245,6.0293,6.0314,6.0047,6.0045,6.0043,6.0042,0,0,5.9784,5.9834,5.9858,5.9883,5.9926,5.998,6.0059,6.0118,6.0153,6.0194,6.0258,6.0345,6.0308,6.0339,6.0327,6.0381,6.0504,6.0334,6.0335,6.0363,6.0642,6.0671,6.0694,6.0483,6.0487,6.049,6.0638,0,5.9937,6.0077,6.0068,6.0199,6.0263,6.0224,6.0292,6.0325,6.0331,6.0384,6.0391,6.0452,6.04,6.0418,6.047,6.0478,6.0559,6.0468,6.0539,6.0542,6.053,6.072,6.0751,6.089,6.0658,6.0661,6.0663,0,6.0135,6.0183,6.0321,6.0352,6.0379,6.0441,6.0492,6.0545,6.0579,6.058,6.0615,6.0593,6.0669,6.0599,6.0703,6.0641,6.0669,6.0678,6.0683,6.0687,6.0609,6.0728,6.0934,6.0954,6.0693,6.0691,6.0689,0,6.0267,6.0366,6.0461,6.0484,6.0523,6.0567,6.0585,6.0616,6.0651,6.0695,6.0717,6.0769,6.0797,6.0837,6.0828,6.0779,6.0933,6.0863,6.0933,6.0934,6.0966,6.0964,6.1178,6.0989,6.0988,6.0988,6.0988,0,6.0438,6.0523,6.052,6.0579,6.0671,6.0659,6.075,6.0763,6.079,6.0848,6.0816,6.087,6.0857,6.091,6.0904,6.0989,6.1002,6.1003,6.1,6.1005,6.1004,6.1022,6.1011,6.0993,6.0992,6.0991,6.099,0,6.0601,6.0603,6.0703,6.0732,6.0741,6.0808,6.0832,6.0885,6.0888,6.0961,6.0978,6.0983,6.1043,6.1039,6.1107,6.1102,6.1207,6.1194,6.1196,6.1192,6.1262,6.1254,6.1493,6.1522,6.1316,6.1318,6.132,0,6.0709,6.0773,6.0809,6.0846,6.0868,6.0928,6.0963,6.0952,6.099,6.1033,6.108,6.1138,6.1184,6.1281,6.129,6.134,6.1326,6.1407,6.1334,6.1336,6.1325,6.132,6.1325,6.142,6.1423,6.1425,6.1426,0,6.09,6.0897,6.0951,6.1004,6.1047,6.1089,6.1126,6.1157,6.115,6.1193,6.1255,6.1291,6.136,6.1416,6.1465,6.148,6.1451,6.1449,6.1467,6.1472,6.147,6.147,6.1233,6.1443,6.1442,6.144,6.1439,6.1439,6.1037,6.1091,6.1125,6.1184,6.1211,6.1247,6.1297,6.1308,6.136,6.1416,6.1406,6.1475,6.1504,6.1566,6.1586,6.1638,6.1609,6.1637,6.1643,6.1649,6.1656,6.1464,6.1647,6.1647,6.1646,6.1646,6.1645,0,6.1224,6.1243,6.1298,6.1352,6.1398,6.1369,6.1408,6.1447,6.1509,6.154,6.1586,6.1655,6.1709,6.1722,6.1773,6.1812,6.1799,6.1825,6.1821,6.1825,6.1681,6.1659,6.1834,6.1834,6.1834,6.1834,6.1834,6.1834,6.1326,6.1416,6.1417,6.1519,6.1537,6.1605,6.163,6.1661,6.1685,6.1765,6.181,6.1819,6.1841,6.1894,6.1941,6.1943,6.1962,6.1993,6.1989,6.1854,6.1835,6.1817,6.1796,6.1998,6.1998,6.2128,6.213,6.2131]}]]